GHOST41 PHNL-PHNL

Flight info

Callsign GHOST41
Flight time 0h 21m
Altitude 20000
Route PHNL PHNG PHHI PHJR PHNL RW04R
Aircraft F35/L-ICAO/C

Departure

Time 2026-05-04 19:29
Airport Daniel K. Inouye International Airport (PHNL)

Arrival

Time 2026-05-04 19:50
Airport Daniel K. Inouye International Airport (PHNL)
Time Latitude Longitude Altitude Speed Heading
2026-05-04 19:26 21.31218 -157.92540 9 ft 0 kts 324°
2026-05-04 19:28 21.31220 -157.92542 9 ft 4 kts 321°
2026-05-04 19:28 21.31283 -157.92608 8 ft 18 kts 321°
2026-05-04 19:28 21.31326 -157.92643 10 ft 0 kts 323°
2026-05-04 19:28 21.31362 -157.92671 11 ft 14 kts 327°
2026-05-04 19:29 21.31458 -157.92620 9 ft 41 kts 53°
2026-05-04 19:29 21.32208 -157.91575 178 ft 294 kts 50°
2026-05-04 19:29 21.33831 -157.89284 1020 ft 449 kts 53°
2026-05-04 19:29 21.35071 -157.86195 2432 ft 496 kts 104°
2026-05-04 19:30 21.32180 -157.84183 2530 ft 547 kts 166°
2026-05-04 19:30 21.28690 -157.82673 3347 ft 544 kts 148°
2026-05-04 19:30 21.25979 -157.79993 3572 ft 532 kts 99°
2026-05-04 19:30 21.28000 -157.77204 4050 ft 515 kts 37°
2026-05-04 19:31 21.31325 -157.75806 4369 ft 526 kts 10°
2026-05-04 19:31 21.34465 -157.74126 4254 ft 519 kts 43°
2026-05-04 19:31 21.37153 -157.71561 3356 ft 493 kts 42°
2026-05-04 19:31 21.39333 -157.69212 3058 ft 390 kts 72°
2026-05-04 19:32 21.38365 -157.67393 2916 ft 282 kts 203°
2026-05-04 19:32 21.36764 -157.68858 2521 ft 327 kts 229°
2026-05-04 19:32 21.35885 -157.71135 2295 ft 334 kts 271°
2026-05-04 19:32 21.36936 -157.72996 2159 ft 292 kts 348°
2026-05-04 19:33 21.38941 -157.72958 2078 ft 308 kts 345°
2026-05-04 19:33 21.41030 -157.74076 2084 ft 369 kts 330°
2026-05-04 19:33 21.43365 -157.75672 2132 ft 424 kts 330°
2026-05-04 19:33 21.45096 -157.78161 2363 ft 460 kts 277°
2026-05-04 19:34 21.45549 -157.81680 2599 ft 487 kts 280°
2026-05-04 19:34 21.46072 -157.85337 3064 ft 502 kts 280°
2026-05-04 19:34 21.46592 -157.89095 3569 ft 513 kts 278°
2026-05-04 19:34 21.47032 -157.92951 3649 ft 523 kts 278°
2026-05-04 19:35 21.47451 -157.96772 3656 ft 501 kts 277°
2026-05-04 19:35 21.47838 -158.00322 3646 ft 461 kts 277°
2026-05-04 19:35 21.48100 -158.03642 3606 ft 430 kts 259°
2026-05-04 19:35 21.46234 -158.05411 3567 ft 357 kts 167°
2026-05-04 19:36 21.43838 -158.04987 3640 ft 349 kts 173°
2026-05-04 19:36 21.41391 -158.05196 3649 ft 356 kts 186°
2026-05-04 19:36 21.38942 -158.05760 3638 ft 367 kts 190°
2026-05-04 19:36 21.36398 -158.06373 3709 ft 381 kts 189°
2026-05-04 19:37 21.33750 -158.06961 3703 ft 396 kts 189°
2026-05-04 19:37 21.30993 -158.07323 3519 ft 401 kts 166°
2026-05-04 19:37 21.29764 -158.05197 3071 ft 365 kts 99°
2026-05-04 19:37 21.29141 -158.02452 2494 ft 388 kts 103°
2026-05-04 19:38 21.28289 -157.99740 2384 ft 371 kts 107°
2026-05-04 19:38 21.28284 -157.97294 2157 ft 315 kts 62°
2026-05-04 19:38 21.29496 -157.95385 1186 ft 311 kts 52°
2026-05-04 19:38 21.30782 -157.93568 531 ft 301 kts 52°
2026-05-04 19:39 21.32207 -157.91542 380 ft 430 kts 52°
2026-05-04 19:39 21.33895 -157.88873 4243 ft 407 kts 79°
2026-05-04 19:39 21.32538 -157.87450 4233 ft 429 kts 246°
2026-05-04 19:39 21.31174 -157.90833 4093 ft 539 kts 242°
2026-05-04 19:40 21.29328 -157.94165 4655 ft 487 kts 233°
2026-05-04 19:40 21.27473 -157.96883 4730 ft 422 kts 232°
2026-05-04 19:40 21.26367 -157.99557 4008 ft 378 kts 281°
2026-05-04 19:40 21.27926 -158.01109 3751 ft 284 kts
2026-05-04 19:41 21.28882 -158.00100 2949 ft 185 kts 94°
2026-05-04 19:41 21.28766 -157.98796 2462 ft 171 kts 92°
2026-05-04 19:41 21.28710 -157.97384 2101 ft 217 kts 80°
2026-05-04 19:41 21.29307 -157.95755 1415 ft 243 kts 58°
2026-05-04 19:42 21.30289 -157.94258 820 ft 244 kts 52°
2026-05-04 19:42 21.31219 -157.92952 214 ft 206 kts 52°
2026-05-04 19:42 21.31977 -157.91879 10 ft 164 kts 52°
2026-05-04 19:42 21.33056 -157.90295 398 ft 352 kts 53°
2026-05-04 19:43 21.34598 -157.87547 2013 ft 496 kts 82°
2026-05-04 19:43 21.32203 -157.85724 2275 ft 557 kts 210°
2026-05-04 19:43 21.31018 -157.89633 2810 ft 602 kts 265°
2026-05-04 19:43 21.30304 -157.94055 2864 ft 612 kts 254°
2026-05-04 19:44 21.28306 -157.97859 4533 ft 581 kts 228°
2026-05-04 19:44 21.25833 -158.00913 5052 ft 490 kts 230°
2026-05-04 19:44 21.25792 -158.03740 4329 ft 384 kts 339°
2026-05-04 19:44 21.27154 -158.02609 3231 ft 280 kts 88°
2026-05-04 19:45 21.27155 -158.00572 2896 ft 258 kts 85°
2026-05-04 19:45 21.27559 -157.98854 2488 ft 225 kts 67°
2026-05-04 19:45 21.28223 -157.97408 1833 ft 213 kts 58°
2026-05-04 19:45 21.29019 -157.96131 1285 ft 199 kts 54°
2026-05-04 19:46 21.29811 -157.94965 910 ft 192 kts 53°
2026-05-04 19:46 21.30643 -157.93780 477 ft 207 kts 52°
2026-05-04 19:46 21.31491 -157.92571 37 ft 183 kts 52°
2026-05-04 19:46 21.32494 -157.91107 461 ft 342 kts 53°
2026-05-04 19:47 21.33614 -157.89492 1000 ft 466 kts 52°
2026-05-04 19:47 21.33322 -157.85342 2012 ft 543 kts 169°
2026-05-04 19:47 21.31229 -157.88015 1945 ft 569 kts 270°
2026-05-04 19:47 21.29763 -157.91979 2622 ft 570 kts 243°
2026-05-04 19:48 21.28118 -157.95621 2663 ft 515 kts 243°
2026-05-04 19:48 21.27112 -157.97838 2695 ft 478 kts 243°
2026-05-04 19:48 21.27297 -158.00623 2125 ft 361 kts 343°
2026-05-04 19:48 21.28596 -157.99532 1819 ft 252 kts 78°
2026-05-04 19:49 21.28861 -157.97699 1515 ft 241 kts 78°
2026-05-04 19:49 21.29265 -157.96057 1205 ft 217 kts 66°
2026-05-04 19:49 21.29969 -157.94733 734 ft 190 kts 52°
2026-05-04 19:49 21.30721 -157.93655 415 ft 179 kts 52°
2026-05-04 19:50 21.31469 -157.92600 50 ft 162 kts 53°
2026-05-04 19:50 21.32021 -157.91817 10 ft 108 kts 52°
2026-05-04 19:50 21.32280 -157.91472 4 ft 38 kts 40°
2026-05-04 19:50 21.32439 -157.91362 5 ft 7 kts 17°
2026-05-04 19:51 21.32447 -157.91359 5 ft 0 kts 17°
2026-05-04 19:56 21.32489 -157.91346 6 ft 14 kts 12°
2026-05-04 19:56 21.32628 -157.91319 8 ft 25 kts
2026-05-04 19:57 21.32692 -157.91448 8 ft 23 kts 268°
2026-05-04 19:57 21.32694 -157.91614 9 ft 22 kts 270°
2026-05-04 19:57 21.32696 -157.91780 10 ft 22 kts 262°
2026-05-04 19:57 21.32765 -157.91891 9 ft 19 kts 302°
2026-05-04 19:58 21.32772 -157.92032 10 ft 19 kts 273°
2026-05-04 19:58 21.32774 -157.92184 11 ft 25 kts 269°
2026-05-04 19:58 21.32772 -157.92381 9 ft 27 kts 271°
2026-05-04 19:58 21.32775 -157.92583 11 ft 27 kts 270°
2026-05-04 19:59 21.32767 -157.92779 10 ft 27 kts 249°
2026-05-04 19:59 21.32744 -157.92980 9 ft 28 kts 271°
2026-05-04 19:59 21.32743 -157.93183 11 ft 27 kts 270°
2026-05-04 19:59 21.32747 -157.93388 9 ft 28 kts 272°
2026-05-04 20:00 21.32743 -157.93585 11 ft 20 kts 269°
2026-05-04 20:00 21.32742 -157.93729 12 ft 20 kts 269°
2026-05-04 20:00 21.32788 -157.93849 9 ft 20 kts 354°
2026-05-04 20:00 21.32929 -157.93847 10 ft 20 kts
2026-05-04 20:01 21.33067 -157.93854 10 ft 19 kts 329°
2026-05-04 20:01 21.33082 -157.93935 10 ft 0 kts 270°